User: anonymous   Login
Location: Jaite
(41.2884°N, 81.5737°W)
Time: 21:00:37
(UTC+00:00)
Language:

STARLINK-48 - Orbit

View from above orbital plane
View from above orbital plane
View from above satellite
View from above satellite

Ground track
Ground track

The orbit data is extracted from the following two-line orbital elements,

1 44289U 19029BG  20088.58336806  .00027656  00000-0  12926-2 0  9993
2 44289  53.0007 194.5485 0001000  69.8017   0.4719 15.19606850 48220
Epoch (UTC): 28 March 2020 14:00:03
Eccentricity: 0.0001000
inclination: 53.0007°
perigee height: 506 km
apogee height: 508 km
right ascension of ascending node: 194.5485°
argument of perigee: 69.8017°
revolutions per day: 15.19606850
mean anomaly at epoch: 0.4719°
orbit number at epoch: 4822

The dashed part of the orbit path shows where the satellite is in the earth's shadow,  

DLR